[TLELIST] Archives

 

[list_settings.list_name] Current TLEs

November 15th 2013 PST

HST 1 20580U 90037B 13317.58748575 .00002523 00000-0 16535-3 0 3739 2 20580 028.4717 013.0824 0003401 139.4906 341.8939 15.04170264 92215 ISS (ZARYA) 1 25544U 98067A 13319.35536839 .00015564 00000-0 27834-3 0 246 2 25544 051.6490 079.3842 0001013 105.8378 289.9578 15.50184037858156 CXO 1 25867U 99040B 13321.31409528 -.00000732 00000-0 00000+0 0 9758 2 25867 076.2153 330.9075 8398557 276.3265 359.7083 00.37801849 11116 ____________________________________________________________________ These 2-Line ...Continue Reading

[list_settings.list_name] Current TLEs

November 14th 2013 PST

HST 1 20580U 90037B 13317.58748575 .00002523 00000-0 16535-3 0 3739 2 20580 028.4717 013.0824 0003401 139.4906 341.8939 15.04170264 92215 ISS (ZARYA) 1 25544U 98067A 13318.39984669 .00016440 00000-0 29381-3 0 161 2 25544 051.6490 084.1191 0001228 110.1674 349.7298 15.50157598858003 CXO 1 25867U 99040B 13318.67031683 -.00000787 00000-0 00000+0 0 9745 2 25867 076.2146 331.0253 8401846 276.3667 359.7728 00.37802343 11105 ____________________________________________________________________ These 2-Line ...Continue Reading

[list_settings.list_name] Current TLEs

November 13th 2013 PST

HST 1 20580U 90037B 13316.52989459 .00003492 00000-0 23351-3 0 3729 2 20580 028.4718 020.0223 0003481 129.1955 014.0365 15.04162708 92053 ISS (ZARYA) 1 25544U 98067A 13317.43379459 .00017416 00000-0 31105-3 0 93 2 25544 051.6492 088.9060 0001176 111.1819 354.1047 15.50129139857850 CXO 1 25867U 99040B 13318.67031683 -.00000787 00000-0 00000+0 0 9745 2 25867 076.2146 331.0253 8401846 276.3667 359.7728 00.37802343 11105 ____________________________________________________________________ These 2-Line ...Continue Reading

[list_settings.list_name] Current TLEs

November 12th 2013 PST

HST 1 20580U 90037B 13314.66938171 .00002464 00000-0 16127-3 0 3717 2 20580 028.4716 032.2262 0003546 109.7225 019.0225 15.04149964 91772 ISS (ZARYA) 1 25544U 98067A 13316.40127684 .00017851 00000-0 31900-3 0 18 2 25544 051.6489 094.0225 0001194 108.6933 350.9349 15.50094413857692 CXO 1 25867U 99040B 13318.67031683 -.00000787 00000-0 00000+0 0 9745 2 25867 076.2146 331.0253 8401846 276.3667 359.7728 00.37802343 11105 ____________________________________________________________________ These 2-Line ...Continue Reading

[list_settings.list_name] Current TLEs

November 11th 2013 PST

HST 1 20580U 90037B 13314.66938171 .00002464 00000-0 16127-3 0 3717 2 20580 028.4716 032.2262 0003546 109.7225 019.0225 15.04149964 91772 ISS (ZARYA) 1 25544U 98067A 13315.42558752 .00018681 00000-0 33380-3 0 9939 2 25544 051.6490 098.8573 0001269 103.6648 307.7614 15.50062016857546 CXO 1 25867U 99040B 13316.02651408 -.00000606 00000-0 00000+0 0 9734 2 25867 076.2092 331.1434 8407993 276.3985 359.8951 00.37804508 11091 ____________________________________________________________________ These 2-Line ...Continue Reading

[list_settings.list_name] Current TLEs

November 10th 2013 PST

HST 1 20580U 90037B 13313.53869219 .00003158 00000-0 21010-3 0 3705 2 20580 028.4716 039.6436 0003547 098.7941 015.2694 15.04142437 91607 ISS (ZARYA) 1 25544U 98067A 13314.47035069 .00020439 00000-0 36480-3 0 9864 2 25544 051.6495 103.5906 0001368 110.7243 006.8160 15.50029347857391 CXO 1 25867U 99040B 13316.02651408 -.00000606 00000-0 00000+0 0 9734 2 25867 076.2092 331.1434 8407993 276.3985 359.8951 00.37804508 11091 ____________________________________________________________________ These 2-Line ...Continue Reading

[list_settings.list_name] Current TLEs

November 9th 2013 PST

HST 1 20580U 90037B 13311.75086219 .00003485 00000-0 23323-3 0 3698 2 20580 028.4714 051.3722 0003585 080.8027 053.2569 15.04132225 91330 ISS (ZARYA) 1 25544U 98067A 13313.48972872 .00021452 00000-0 38298-3 0 9782 2 25544 051.6502 108.4482 0001223 105.8825 296.1426 15.49989477857244 CXO 1 25867U 99040B 13310.77556867 .00000000 00000-0 10000-3 0 9645 2 25867 076.1704 331.4662 8411345 276.3822 005.2956 00.37807756 11075 ____________________________________________________________________ These 2-Line ...Continue Reading

[list_settings.list_name] Current TLEs

November 8th 2013 PST

HST 1 20580U 90037B 13311.75086219 .00003485 00000-0 23323-3 0 3698 2 20580 028.4714 051.3722 0003585 080.8027 053.2569 15.04132225 91330 ISS (ZARYA) 1 25544U 98067A 13312.45932442 -.00001132 00000-0 -11926-4 0 9715 2 25544 051.6497 113.5535 0000981 128.1625 280.5358 15.49934846857082 CXO 1 25867U 99040B 13310.77556867 .00000000 00000-0 10000-3 0 9645 2 25867 076.1704 331.4662 8411345 276.3822 005.2956 00.37807756 11075 ____________________________________________________________________ These 2-Line ...Continue Reading

[list_settings.list_name] Current TLEs

November 7th 2013 PST

HST 1 20580U 90037B 13309.55386535 .00003212 00000-0 21408-3 0 3686 2 20580 028.4712 065.7843 0003535 060.0705 034.1182 15.04117251 90991 ISS (ZARYA) 1 25544U 98067A 13311.48982992 .00010956 00000-0 20047-3 0 9672 2 25544 051.6493 118.3502 0001416 120.0289 275.5664 15.49885352856930 CXO 1 25867U 99040B 13313.37924540 -.00000348 00000-0 00000+0 0 9721 2 25867 076.1954 331.2954 8413760 276.4028 359.6178 00.37803787 11089 ____________________________________________________________________ These 2-Line ...Continue Reading

[list_settings.list_name] Current TLEs

November 6th 2013 PST

HST 1 20580U 90037B 13309.55386535 .00003212 00000-0 21408-3 0 3686 2 20580 028.4712 065.7843 0003535 060.0705 034.1182 15.04117251 90991 ISS (ZARYA) 1 25544U 98067A 13310.45837888 .00011953 00000-0 21810-3 0 9599 2 25544 051.6483 123.4576 0001469 117.3520 279.4309 15.49866117856771 CXO 1 25867U 99040B 13310.73349126 -.00000277 00000-0 00000+0 0 9719 2 25867 076.1841 331.4389 8417843 276.3986 359.5833 00.37801829 11077 ____________________________________________________________________ These 2-Line ...Continue Reading
  • This mailing list is a public mailing list - anyone may join or leave, at any time.
  • This mailing list is announce-only.

International Space Station (ISS) / Hubble Space Telescope (HST) / Chandra X-Ray Observatory Orbital Data via EMAIL

Privacy Policy:

Private list